Temp
6 6 5 5 6 8 7 7 7 8 9 11 11 12 13 14 14 14 14 14 14 14 14 14 14 14 14 13 13 14 14 15 15 10 10 11 11 10 11 12 11 12 12
4 4 4 4 4 5 5 5 5 6 8 9 10 10 12 13 14 14 14 14 14 14 14 14 14 14 14 13 13 13 13 14 14 12 9 9 9 9 10 11 11 11 12
2 2 3 2 3 3 3 3 4 5 5 6 7 8 9 11 12 14 14 14 14 14 14 14 14 14 13 13 13 13 13 13 13 11 7 7 6 7 7 8 9 9 10
-0 1 1 1 1 1 2 2 3 3 4 4 5 5 7 9 11 12 13 14 14 14 14 14 14 14 14 13 13 13 13 13 12 10 7 5 5 4 4 4 3 5 6
-1 -0 -0 -0 -0 -0 0 1 2 2 3 3 3 4 5 6 9 9 11 13 14 14 14 14 14 14 14 14 13 13 13 13 12 9 5 4 2 2 2 2 1 0 1
-2 -2 -2 -2 -1 -1 -0 0 1 1 1 1 3 3 4 5 5 6 8 9 13 13 13 14 14 14 14 14 14 13 13 12 10 9 6 5 4 3 2 2 -0 -0 -0
-3 -3 -3 -2 -2 -2 -1 -1 -0 -0 -0 0 1 2 3 4 4 5 6 8 10 12 13 13 13 13 13 13 13 13 13 13 13 11 7 6 4 4 2 1 0 1 2
-4 -4 -4 -3 -3 -2 -2 -2 -2 -2 -1 -1 0 1 2 3 4 5 6 7 9 11 12 13 12 13 13 13 13 13 12 12 12 12 11 11 11 7 6 5 1 1 0
-4 -5 -4 -4 -4 -3 -3 -3 -3 -3 -3 -2 -1 0 1 2 3 4 4 5 7 9 10 12 12 12 14 13 12 12 12 12 12 11 11 11 10 7 4 3 0 1 -2
-5 -5 -5 -5 -5 -4 -4 -4 -4 -4 -3 -3 -2 -1 0 1 1 2 3 3 4 6 9 10 12 12 12 13 12 12 11 12 12 11 8 7 7 5 3 5 1 2 1
-6 -5 -5 -5 -5 -5 -5 -5 -5 -4 -4 -4 -3 -2 -1 0 0 1 2 2 2 3 5 8 10 11 11 12 12 12 12 12 10 9 7 6 6 4 2 2 2 3 1
-6 -5 -6 -6 -6 -6 -6 -5 -5 -4 -4 -4 -4 -3 -2 -1 -0 0 1 1 2 2 3 5 6 7 8 10 10 10 10 9 8 5 4 3 3 1 1 1 1 2 1
-6 -6 -7 -7 -7 -7 -7 -6 -6 -6 -5 -4 -4 -4 -3 -3 -1 -1 0 -1 1 1 2 3 4 4 5 4 6 7 6 6 4 1 -0 -1 -1 -1 -1 -0 -0 0 -0
-7 -8 -8 -8 -7 -7 -7 -7 -7 -6 -5 -4 -5 -4 -3 -3 -2 -1 -1 -1 -1 -1 -1 -1 0 1 1 2 0 1 2 2 1 -1 -3 -4 -4 -4 -3 -2 -2 -3 -3
-7 -8 -8 -8 -8 -7 -7 -7 -7 -7 -6 -6 -5 -5 -3 -3 -2 -2 -2 -2 -2 -2 -2 -3 -3 -3 -3 -2 -3 -2 -1 -2 -2 -4 -5 -6 -6 -5 -5 -5 -5 -5 -7
-8 -7 -8 -8 -8 -8 -7 -7 -7 -7 -7 -7 -7 -6 -5 -4 -3 -3 -3 -3 -3 -4 -4 -4 -5 -4 -5 -5 -5 -5 -5 -5 -5 -6 -6 -6 -7 -7 -7 -7 -6 -7 -7
-9 -8 -8 -8 -8 -8 -8 -8 -7 -7 -7 -7 -8 -8 -7 -6 -6 -5 -4 -5 -5 -5 -5 -5 -6 -6 -6 -6 -6 -6 -7 -7 -6 -7 -7 -7 -7 -7 -7 -7 -7 -7 -7
-9 -9 -9 -9 -9 -8 -8 -8 -8 -8 -8 -8 -8 -9 -9 -8 -7 -6 -5 -5 -6 -6 -6 -6 -7 -7 -7 -7 -7 -7 -7 -7 -7 -7 -8 -8 -8 -8 -8 -8 -8 -8 -8
-9 -9 -9 -9 -9 -9 -9 -9 -9 -9 -9 -9 -9 -9 -9 -9 -8 -8 -8 -7 -7 -7 -8 -8 -8 -7 -8 -8 -8 -8 -8 -8 -8 -8 -8 -8 -8 -8 -9 -9 -9 -8 -8
-9 -9 -9 -9 -9 -9 -9 -9 -9 -9 -9 -10 -10 -11 -10 -9 -9 -9 -9 -9 -8 -8 -8 -8 -8 -8 -8 -8 -8 -9 -9 -9 -9 -9 -9 -9 -9 -9 -9 -9 -8 -8 -8
-9 -9 -10 -9 -9 -10 -10 -10 -10 -10 -10 -11 -11 -12 -12 -11 -11 -11 -10 -10 -10 -9 -9 -9 -9 -9 -9 -9 -9 -9 -9 -9 -9 -9 -10 -9 -9 -9 -10 -10 -9 -9 -9
-9 -9 -9 -10 -10 -10 -11 -11 -11 -11 -11 -11 -11 -12 -13 -12 -13 -13 -13 -12 -12 -11 -11 -11 -10 -10 -9 -9 -9 -9 -10 -10 -10 -10 -10 -10 -10 -10 -10 -10 -10 -10 -10
-10 -10 -10 -10 -10 -11 -11 -11 -11 -11 -12 -12 -12 -12 -13 -13 -14 -14 -14 -14 -13 -13 -12 -11 -11 -11 -10 -10 -10 -10 -10 -10 -10 -10 -10 -11 -11 -11 -11 -11 -11 -10 -10
-10 -10 -10 -11 -11 -11 -11 -11 -12 -12 -12 -12 -13 -13 -14 -14 -14 -14 -14 -13 -13 -13 -13 -12 -11 -11 -11 -10 -10 -10 -10 -10 -10 -10 -9 -10 -11 -11 -11 -12 -12 -12 -12
-11 -11 -11 -11 -11 -12 -12 -12 -12 -12 -13 -13 -14 -14 -14 -14 -14 -14 -14 -13 -13 -12 -12 -11 -11 -10 -10 -10 -10 -10 -10 -9 -9 -9 -10 -10 -10 -11 -11 -12 -13 -13 -13
-12 -12 -12 -12 -12 -12 -12 -12 -12 -13 -13 -14 -14 -14 -14 -14 -14 -14 -13 -13 -12 -12 -12 -12 -12 -11 -11 -11 -11 -11 -10 -10 -10 -10 -10 -10 -10 -12 -12 -12 -13 -14 -14
Height
713 715 710 712 710 711 712 713 719 721 721 718 720 719 720 720 720 721 720 722 725 727 730 733 735 740 743 747 750 755 758 763 765 770 772 775 779 781 786 790 795 800 806
725 718 714 716 716 711 717 721 722 719 716 715 715 717 717 716 717 715 714 716 717 720 723 725 728 732 735 739 742 747 751 755 758 762 766 769 772 775 778 781 785 791 796
737 728 723 720 720 724 721 721 718 716 715 716 716 714 713 713 713 711 709 710 710 712 714 716 719 723 727 730 734 738 743 748 752 754 758 763 766 768 772 775 777 783 787
739 729 727 725 722 724 723 718 721 718 716 716 717 713 713 710 708 707 705 703 703 703 705 707 710 713 717 721 727 730 735 739 744 746 751 755 760 765 769 769 772 776 780
751 746 737 733 730 730 726 724 720 719 718 717 715 713 709 706 705 705 701 700 697 698 701 702 701 705 709 713 717 721 726 731 734 737 743 749 754 759 760 764 770 772 777
756 750 746 738 733 729 729 725 723 719 718 716 717 712 707 704 702 699 697 694 691 693 694 692 694 698 701 705 709 713 718 721 724 729 735 739 742 748 754 757 763 771 777
756 754 743 734 733 732 732 727 722 719 716 716 714 709 704 700 697 694 691 687 685 684 684 684 687 690 694 698 703 707 710 713 715 718 723 727 734 736 743 750 754 758 758
761 755 744 738 738 735 731 726 722 720 717 714 710 706 700 694 693 690 687 684 682 679 679 678 681 681 686 691 693 700 703 706 707 710 713 716 720 725 727 729 742 755 760
760 753 745 744 743 738 733 728 724 720 716 712 709 704 699 692 689 686 682 678 675 673 673 672 673 677 677 683 687 690 695 697 699 702 706 709 713 717 724 734 742 749 760
760 755 751 745 741 736 733 730 725 721 716 711 706 700 695 689 685 682 680 676 671 668 666 665 666 669 671 674 681 680 684 686 690 693 700 703 709 713 716 718 725 734 744
762 758 751 743 739 736 733 728 724 718 714 709 703 698 694 688 681 679 676 673 669 664 661 660 660 662 665 670 672 671 674 678 683 687 693 698 703 709 714 719 721 727 733
762 756 749 745 740 738 734 728 722 718 713 708 701 696 689 684 679 677 673 670 665 661 657 656 656 657 659 660 661 664 666 671 676 682 689 694 698 706 711 715 719 725 729
762 757 753 747 742 736 732 727 724 719 712 709 703 695 688 682 676 673 670 665 661 658 654 652 652 654 657 659 657 657 661 666 672 679 685 690 696 701 706 712 717 722 729
763 757 751 745 740 736 733 729 723 717 714 710 703 695 687 680 674 671 669 663 659 658 655 652 651 653 654 649 658 659 662 664 670 675 683 688 698 705 708 711 715 722 727
762 758 752 744 740 736 732 730 724 721 716 710 704 695 684 678 675 671 668 664 661 660 660 657 654 657 658 659 663 660 662 666 670 675 681 687 699 703 708 713 715 721 727
766 760 757 752 747 741 734 727 725 721 716 712 707 699 689 682 675 671 667 664 662 662 663 662 658 658 662 660 659 663 665 669 672 678 681 690 697 702 708 716 720 723 729
772 766 761 754 743 738 735 730 724 718 716 711 705 699 692 687 680 674 671 665 665 665 665 665 663 660 663 665 662 665 667 673 677 678 680 694 696 703 710 719 726 728 736
767 763 754 747 742 740 736 733 728 722 715 709 704 700 694 690 685 678 673 668 666 667 668 666 665 665 665 667 669 672 671 677 678 684 686 696 697 702 714 720 728 733 738
763 757 752 747 743 739 734 730 727 723 719 714 707 700 696 690 685 679 674 672 673 673 672 671 668 669 670 673 675 675 674 680 682 687 693 700 701 707 715 723 730 738 744
760 755 751 749 745 742 739 735 731 727 723 719 713 707 701 694 688 684 681 678 678 677 677 677 675 674 674 675 678 677 680 688 687 693 699 704 709 716 722 729 735 742 748
763 759 756 753 750 746 742 739 735 732 727 724 718 713 706 701 696 693 691 688 687 684 683 683 681 681 682 682 682 684 686 691 695 701 706 711 716 723 731 737 740 746 753
765 762 758 756 753 749 746 743 739 736 732 727 721 717 712 708 705 702 699 697 694 691 691 689 687 687 689 690 691 691 694 696 702 708 713 718 723 733 738 743 748 754 757
766 764 761 758 755 752 749 746 742 738 735 731 726 723 719 716 712 710 707 704 702 700 699 696 695 696 697 697 699 700 703 707 709 714 719 726 732 738 743 748 754 759 764
769 765 763 760 757 755 752 749 746 743 740 737 733 731 728 725 722 719 716 713 712 710 708 706 706 708 707 706 710 712 713 716 720 722 726 732 739 745 749 754 759 764 768
772 768 765 763 761 758 756 753 751 748 746 744 741 739 737 734 732 730 727 724 722 721 718 718 719 720 720 722 724 725 727 728 730 732 736 742 747 751 756 761 766 770 774
775 772 769 767 764 762 760 758 756 754 752 750 748 747 745 744 742 740 737 735 732 731 731 733 734 733 733 735 736 736 736 738 741 743 746 749 754 759 763 767 771 775 779
Wind_Speed
23 18 22 21 20 19 17 15 11 8 8 9 11 11 13 16 21 26 28 29 31 31 32 31 34 32 30 31 31 30 29 25 12 8 21 29 28 40 42 40 39 41 41
24 22 23 20 20 21 16 13 12 12 12 11 13 13 14 15 19 24 27 30 30 30 32 32 31 32 31 29 29 28 27 28 23 13 22 26 29 34 41 42 41 40 41
26 22 21 22 20 17 16 15 16 16 14 13 13 13 15 16 16 21 27 28 31 33 34 33 33 33 31 28 28 28 27 26 27 19 20 24 21 29 32 36 39 39 37
31 31 25 24 23 21 18 18 16 16 16 16 15 14 14 16 18 19 21 27 32 32 33 36 35 35 34 31 29 26 26 25 25 22 17 15 18 22 26 29 27 32 36
24 22 23 20 19 18 18 17 16 15 15 16 17 15 15 14 14 17 18 24 26 28 34 35 35 37 37 34 31 28 29 27 22 22 15 12 15 17 28 26 19 29 30
20 20 19 18 18 20 20 19 16 16 17 18 17 16 14 13 15 19 20 22 25 27 30 35 35 37 38 36 36 33 35 28 24 20 18 17 26 27 28 29 29 24 8
22 22 23 23 22 22 20 19 19 19 18 19 18 17 15 16 20 22 23 23 23 27 30 30 31 35 34 35 34 35 33 30 32 34 29 25 26 35 36 33 33 32 17
20 20 21 23 22 22 22 21 22 21 20 20 20 20 21 20 21 22 23 22 24 24 31 34 33 37 36 34 35 32 33 32 32 36 37 35 38 40 51 53 42 23 10
24 25 24 23 22 21 21 22 22 22 22 21 22 21 21 21 22 22 24 22 24 25 27 36 37 34 36 33 33 32 32 33 32 32 39 37 38 39 43 33 32 30 9
25 24 21 21 20 20 21 21 20 19 21 21 22 22 23 21 21 23 22 20 24 25 24 32 35 35 33 33 37 34 32 34 30 27 36 31 29 35 47 50 45 36 19
23 21 21 22 22 20 23 20 21 20 20 21 22 22 20 19 22 23 22 20 21 22 23 29 31 34 35 35 35 33 34 30 25 23 27 27 26 33 43 39 38 35 29
23 22 22 22 19 20 20 20 20 19 20 20 21 22 20 22 22 22 22 19 19 20 24 24 29 26 27 30 30 30 28 23 21 20 22 24 28 29 30 36 30 31 29
23 23 20 20 20 20 20 19 17 17 17 18 20 22 23 23 23 23 21 20 18 18 19 19 20 19 18 14 20 21 20 21 22 23 22 22 24 28 30 29 26 25 17
21 22 21 20 22 20 19 17 17 16 18 19 21 23 23 23 22 22 20 16 13 8 2 10 14 16 14 13 16 19 19 21 25 26 24 24 24 26 29 30 30 31 30
22 22 22 22 22 22 20 18 17 15 16 19 22 27 23 19 19 21 17 11 7 6 7 9 12 12 17 19 16 17 19 21 23 25 28 27 26 27 26 27 31 25 23
21 20 19 17 17 17 19 21 18 16 14 16 20 24 28 23 18 12 8 9 7 6 4 3 6 8 6 12 15 15 17 20 23 26 27 26 25 25 25 23 25 28 30
13 13 13 13 15 17 17 17 20 23 18 17 20 21 23 24 22 17 7 4 4 4 2 1 4 8 9 10 15 15 15 17 23 25 29 25 27 27 27 24 23 27 26
13 13 14 15 15 15 15 15 16 18 20 23 21 21 22 20 19 16 12 9 8 4 2 5 8 10 12 14 15 16 21 20 23 23 28 27 29 30 26 25 24 25 27
15 16 16 15 15 16 17 17 17 18 18 19 22 24 24 19 16 15 13 10 6 6 6 8 14 17 18 18 19 21 23 21 24 26 26 26 28 30 28 27 27 26 26
17 18 17 15 16 16 16 16 17 17 17 18 19 21 20 17 19 18 16 14 11 10 10 11 15 19 22 24 25 27 28 25 27 27 27 28 28 28 28 28 27 25 23
16 15 16 14 14 15 15 15 15 15 16 15 15 18 18 16 16 17 17 17 14 13 14 15 16 17 18 20 25 28 30 29 30 30 29 30 30 28 25 24 26 26 25
14 14 14 14 14 14 14 13 13 13 14 15 15 16 18 16 16 17 17 17 16 16 16 20 23 22 21 21 22 26 28 31 31 30 31 31 31 27 26 26 25 24 24
14 13 13 13 13 13 13 13 14 14 15 16 17 17 18 18 19 18 19 19 19 20 20 22 25 27 28 30 29 28 27 27 30 34 32 30 28 28 27 25 23 21 19
13 13 13 12 13 13 13 13 13 15 15 16 17 17 18 18 19 21 24 27 29 29 31 32 31 30 31 32 31 31 32 31 32 33 35 34 31 29 28 25 21 22 20
13 13 13 12 12 12 12 13 13 14 14 15 15 16 18 19 22 24 27 30 33 35 36 36 36 34 34 32 31 29 28 29 30 31 32 31 31 29 28 25 22 20 20
13 13 12 12 12 12 11 11 12 12 13 13 15 16 17 19 21 23 27 30 33 33 33 33 31 31 31 30 28 27 27 26 26 27 29 29 30 28 26 26 23 20 18
Wind_Direction
33 32 42 35 44 49 41 32 9 350 333 328 306 295 278 266 255 237 225 226 219 219 214 217 218 214 209 208 210 212 212 215 222 208 211 223 220 221 222 222 224 224 223
12 22 32 31 27 32 28 14 357 352 349 337 326 299 290 283 270 253 232 225 223 219 219 217 218 211 211 206 202 208 212 216 220 208 208 214 217 219 221 217 217 221 218
357 15 23 24 22 13 11 3 2 355 350 340 326 319 296 285 289 270 248 235 223 221 220 217 216 208 207 202 201 204 214 219 218 207 195 205 203 210 205 209 209 211 209
358 9 13 10 7 359 355 1 353 352 351 338 323 316 306 290 284 290 270 242 234 225 221 220 214 207 206 203 203 210 213 208 209 203 185 187 197 197 193 179 169 182 183
349 358 4 3 2 352 352 350 354 354 344 333 322 314 313 306 296 291 305 268 247 229 226 223 216 213 216 214 208 211 210 211 207 183 165 171 177 172 187 181 164 160 160
355 355 353 360 1 0 349 348 345 346 339 330 317 311 313 309 303 309 296 298 261 241 225 220 224 225 225 228 221 217 215 204 191 187 186 196 197 199 183 176 163 159 162
353 348 358 3 357 352 342 343 343 341 333 322 316 315 312 313 320 318 317 296 281 253 234 229 221 226 224 222 225 226 220 230 234 219 198 203 194 199 188 178 183 189 182
352 351 3 1 350 343 342 343 340 333 326 320 317 315 314 320 323 320 314 300 279 261 247 232 222 228 223 224 214 225 230 227 229 232 232 233 237 220 213 202 189 176 172
356 355 356 352 344 342 342 336 332 327 324 320 317 312 310 316 323 323 322 312 290 274 252 243 236 230 235 231 223 224 231 234 237 243 237 241 236 224 198 181 170 167 144
353 350 348 349 346 341 338 331 328 324 319 317 314 315 314 314 323 326 325 314 301 287 267 242 238 237 225 223 225 220 225 234 232 230 223 217 218 210 199 204 184 181 167
348 346 348 351 346 341 334 333 331 328 325 323 320 317 313 318 325 327 325 316 304 294 276 253 236 239 231 225 225 221 226 235 228 221 217 203 199 201 197 193 199 189 184
347 348 351 349 348 341 334 335 335 333 329 330 328 323 322 323 323 325 323 324 311 290 277 268 257 241 236 228 219 220 222 224 206 196 186 178 179 181 188 194 197 195 200
347 347 347 350 352 350 345 340 334 339 339 335 332 326 320 318 315 321 320 323 325 301 282 267 257 239 227 224 212 206 204 194 182 160 153 157 168 172 174 175 174 183 171
342 340 346 349 351 352 352 348 341 343 343 342 340 328 318 314 311 321 318 324 332 321 199 162 187 199 189 174 174 170 177 179 173 162 154 154 157 155 155 161 148 140 133
344 343 348 352 352 350 351 347 348 347 350 352 350 347 330 318 312 315 313 309 293 248 194 166 148 148 152 162 165 157 160 163 159 157 145 140 141 143 142 147 143 141 124
343 345 342 344 346 350 348 345 355 1 356 358 359 2 3 357 336 332 318 317 300 211 232 210 141 137 140 143 132 133 146 148 144 143 135 138 135 130 127 131 132 125 122
331 335 337 344 355 354 350 348 345 345 353 360 1 359 4 6 16 29 12 55 346 277 256 137 117 129 126 123 123 131 124 134 140 135 131 134 128 123 124 120 119 119 116
347 345 354 356 357 354 355 353 353 350 347 345 351 358 358 359 3 4 355 348 12 20 135 131 115 117 120 118 118 124 121 124 122 124 125 129 125 123 120 118 119 119 116
2 1 0 359 0 359 0 0 358 356 350 347 350 358 2 1 6 14 20 30 30 44 79 99 118 119 115 114 114 112 111 114 117 118 118 120 119 120 116 114 114 117 119
1 3 6 3 2 2 2 3 1 357 355 354 358 359 356 9 20 22 29 36 39 53 72 91 104 114 117 116 112 107 104 105 105 106 108 108 109 112 113 116 119 118 112
359 1 5 6 7 6 6 4 3 358 2 356 3 7 16 28 29 30 30 35 41 52 64 78 87 98 110 113 115 115 113 109 108 109 107 108 110 107 109 111 112 114 116
3 3 7 9 7 9 11 9 10 10 12 13 17 17 28 38 36 37 37 37 44 58 69 83 80 82 90 96 104 108 110 110 111 111 110 112 113 111 112 110 108 111 113
9 10 12 13 13 13 18 21 21 23 24 27 30 28 33 39 42 44 47 49 53 65 75 79 86 90 99 101 101 101 101 102 112 121 116 114 113 114 114 111 114 113 113
12 16 17 18 20 23 25 28 30 33 35 36 39 39 41 44 49 56 65 72 78 78 82 86 90 93 99 102 106 110 115 119 121 122 126 122 119 119 117 112 112 114 112
19 22 25 23 25 26 29 34 36 39 40 40 44 49 53 59 63 67 74 80 83 83 82 84 87 89 91 95 99 104 111 116 118 121 121 122 122 120 120 116 115 113 114
26 28 31 29 30 31 33 35 41 43 47 48 54 59 65 68 73 77 81 84 84 84 86 86 88 91 94 96 99 103 106 111 116 120 123 124 124 123 122 121 119 114 114